Weather History for KIMT - December, 2013

Change the Weather History Date:

Thursday, December 26, 2013

  Actual Average Record
Temperature  
Mean Temperature 2 °F -  
Max Temperature 12 °F 21 °F 43 °F (2011)
Min Temperature -11 °F 2 °F -21 °F (1990)
Degree Days  
Heating Degree Days 64    
Moisture  
Dew Point -1 °F    
Average Humidity 78    
Maximum Humidity 87    
Minimum Humidity 65    
Precipitation  
Precipitation 0.00 in - - ()
Sea Level Pressure  
Sea Level Pressure 30.15 in    
Wind  
Wind Speed 3 mph (WNW)    
Max Wind Speed 8 mph    
Max Gust Speed -    
Visibility 10 miles    
Events      
Averages and records for this station are not official NWS values.
T = Trace of Precipitation, MM = Missing Value Source: NWS Daily Summary

Daily Weather History Graph

Daily Weather History Graph

Search for Another Location

Airport or City:

Trip Planner

Search our weather history database for the weather conditions in past years. The results will help you decide how hot, cold, wet, or windy it might be!

Date:

Astronomy

Dec. 26, 2013 Rise Set
Actual Time 7:32 AM CST 4:13 PM CST
Civil Twilight 6:58 AM CST 4:48 PM CST
Nautical Twilight 6:20 AM CST 5:26 PM CST
Astronomical Twilight 5:44 AM CST 6:02 PM CST
Moon 12:47 AM CST (12/26) 12:01 PM CST (12/26)
Length of Visible Light 9h 49m
Length of Day
8h 40m
Last Quarter, 38% of the Moon is Illuminated
Dec 26
Last Quarter
Jan 1
New
Jan 7
First Quarter
Jan 15
Full
Jan 23
Last Quarter

Hourly Weather History & Observations

Time (CST) Temp. Windchill Dew Point Humidity Pressure Visibility Wind Dir Wind Speed Gust Speed Precip Events Conditions
12:54 AM 6.1 °F -0.9 °F 3.0 °F 87% 30.02 in 7.0 mi WNW 3.5 mph - N/A   Clear
1:54 AM 6.1 °F -0.9 °F 3.0 °F 87% 30.04 in 8.0 mi WNW 3.5 mph - N/A   Clear
2:54 AM 1.9 °F - -2.0 °F 83% 30.05 in 9.0 mi Calm Calm - N/A   Partly Cloudy
3:54 AM 3.9 °F - -0.0 °F 84% 30.06 in 10.0 mi Calm Calm - N/A   Overcast
4:54 AM 7.0 °F -1.7 °F 3.0 °F 84% 30.08 in 10.0 mi WNW 4.6 mph - N/A   Mostly Cloudy
5:54 AM 3.9 °F -5.3 °F -0.0 °F 84% 30.09 in 10.0 mi WNW 4.6 mph - N/A   Clear
6:54 AM 3.9 °F -5.3 °F -0.0 °F 84% 30.12 in 10.0 mi WNW 4.6 mph - N/A   Clear
7:54 AM 5.0 °F -5.6 °F -0.0 °F 80% 30.14 in 10.0 mi West 5.8 mph - N/A   Mostly Cloudy
8:54 AM 6.1 °F - 1.0 °F 80% 30.16 in 10.0 mi Calm Calm - N/A   Overcast
9:54 AM 9.0 °F -2.2 °F 3.0 °F 77% 30.17 in 10.0 mi West 6.9 mph - N/A   Overcast
10:54 AM 10.9 °F 0.2 °F 3.9 °F 73% 30.16 in 10.0 mi NW 6.9 mph - N/A   Mostly Cloudy
11:54 AM 12.0 °F 0.5 °F 3.0 °F 67% 30.16 in 10.0 mi West 8.1 mph - 0.00 in   Mostly Cloudy
12:13 PM 12.2 °F 2.9 °F 3.2 °F 67% 30.07 in 10.0 mi West 5.8 mph - N/A   Overcast
12:54 PM 12.0 °F 2.7 °F 3.0 °F 67% 30.17 in 10.0 mi West 5.8 mph - N/A   Overcast
1:03 PM 12.2 °F 4.3 °F 3.2 °F 67% 30.08 in 10.0 mi WSW 4.6 mph - N/A   Overcast
1:54 PM 12.9 °F 2.6 °F 3.0 °F 65% 30.16 in 10.0 mi West 6.9 mph - N/A   Overcast
2:54 PM 12.9 °F 6.9 °F 3.0 °F 65% 30.17 in 10.0 mi WSW 3.5 mph - N/A   Overcast
3:54 PM 10.9 °F - 1.9 °F 67% 30.17 in 10.0 mi Calm Calm - N/A   Clear
4:54 PM 3.9 °F - -0.9 °F 80% 30.19 in 10.0 mi Calm Calm - N/A   Clear
5:54 PM -0.0 °F - -4.0 °F 83% 30.21 in 10.0 mi Calm Calm - N/A   Overcast
6:54 PM -2.9 °F - -6.0 °F 87% 30.22 in 10.0 mi Calm Calm - N/A   Clear
8:54 PM -6.0 °F -14.7 °F -9.0 °F 87% 30.25 in 10.0 mi NW 3.5 mph - N/A   Clear
9:54 PM -8.0 °F - -13.0 °F 79% 30.24 in 10.0 mi Calm Calm - N/A   Clear
10:54 PM -9.0 °F - -13.0 °F 83% 30.24 in 10.0 mi Calm Calm - N/A   Clear
11:54 PM -11.9 °F - -16.1 °F 82% 30.25 in 10.0 mi Calm Calm - N/A   Clear